Location: Newark
(34.6283°N, 36.0776°E)
Time: 20:29:20
(UTC+00:00)

Tiros 1 despin weight - Pass Details

Date: 23 September 2019
Orbit: 594 x 643 km, 48.2° (Epoch: 16 October)

Event Time Altitude Azimuth Distance (km) Brightness Sun altitude
Rises 11:32:36 0° 301° (WNW) 2,875 ? 44.7°
Reaches altitude 10° 11:35:59 10° 327° (NNW) 1,958 ? 44.2°
Maximum altitude 11:38:21 14° 360° (N) 1,702 ? 43.9°
Drops below altitude 10° 11:40:43 10° 32° (NNE) 1,944 ? 43.5°
Sets 11:44:03 0° 58° (ENE) 2,838 ? 43.0°
